Location: Czu?�w
(50.1404°N, 18.9919°E)
Time: 03:40:58
(UTC+00:00)

Cosmos 220 Rocket - Pass Details

Date: 27 October 2020
Orbit: 574 x 617 km, 74.0° (Epoch: 27 November)

Event Time Altitude Azimuth Distance (km) Brightness Sun altitude
Rises 17:26:44 0° 193° (SSW) 2,832 7.6 -19.4°
Reaches altitude 10° 17:28:57 10° 190° (S) 1,942 6.7 -19.8°
Maximum altitude 17:33:14 62° 109° (ESE) 687 3.9 -20.5°
Enters shadow 17:34:06 50° 59° (ENE) 781 4.2 -20.6°
